Regional Weather Roundup
Issued by NWS Newport/Morehead, NC

Current Version | Previous Version | Graphics & Text | Print | Product List | Glossary On
Versions: 1 2 3 4 5 6 7 8 9 10 11 12 13 14 15 16 17 18 19 20 21 22 23 24 25 26 27 28 29 30 31 32 33 34 35 36 37 38 39 40 41 42 43 44 45 46 47 48 49 50
000 ASUS42 KMHX 230425 RWRMHX WEATHER ROUNDUP FOR EASTERN NORTH CAROLINA NATIONAL WEATHER SERVICE NEWPORT/MOREHEAD CITY NC 1100 PM EST WED NOV 22 2017 NOTE: "FAIR" INDICATES FEW OR NO CLOUDS BELOW 12,000 FEET WITH NO SIGNIFICANT WEATHER AND/OR OBSTRUCTIONS TO VISIBILITY NCZ015>017-031-032-045>047-102-103-230500- NORTH COAST CITY SKY/WX TMP DP RH WIND PRES REMARKS EDENTON CLEAR 44 35 72 CALM 30.15R ELIZABETH CITY PTCLDY 46 37 71 N9 30.14R KITTY HAWK CLEAR 50 37 62 N7 30.10S MANTEO CLEAR 50 39 66 NE17G23 30.12S $$ NCZ045>047-081-094-103-104-230500- CENTRAL COAST CITY SKY/WX TMP DP RH WIND PRES REMARKS FRISCO CLEAR 53 44 71 NE10G22 30.10R $$ NCZ095-097-098-100-101-230500- SOUTHERN COAST CITY SKY/WX TMP DP RH WIND PRES REMARKS BEAUFORT CLEAR 50 45 83 NE9 30.10R CEDAR ISLAND NOT AVBL JACKSONVILLE CLEAR 49 40 71 N3 30.09 PINEY ISLAND N/A N/A N/A N/A NE16G25 30.10 WILMINGTON CLEAR 47 40 76 N5 30.09R $$ NCZ011>013-027>030-043-044-078>080-089-090>093-098-230500- COASTAL PLAIN CITY SKY/WX TMP DP RH WIND PRES REMARKS AHOSKIE CLEAR 41 30 65 N6 30.17R CLINTON PTCLDY 50 32 50 N7 30.13S ELIZABETHTOWN NOT AVBL GOLDSBORO CLOUDY 49 34 55 N10 30.12R GREENVILLE CLEAR 41 34 75 N6 30.17R HAVELOCK CLEAR 51 44 77 NE13 30.12R KENANSVILLE CLEAR 48 34 57 N9 30.13R KINSTON CLEAR 48 37 67 N10 30.15R NEW BERN CLEAR 48 44 86 NE9 30.12R RICHLANDS CLEAR 46 38 73 N5 30.11R ROCKY MOUNT PTCLDY 42 34 73 NE7 30.16R WASHINGTON CLEAR 45 34 64 N6 30.15R WHITEVILLE CLEAR 50 37 61 N3 30.11R $$ AMZ130-135-150-152-154-156-158-170-250-252-270-ANZ085-086-088-633-658-670-230500- MARINE OBSERVATIONS STATION/POSITION TIME TEMP WIND PRES WAVE SWELL AIR SEA DIR/SP/G HT/PER HT/PER (UTC) (F) (DEG/KT/KT) (MB) (FT/S) (FT/S) CHESAPEAKE LIGHT NOT AVBL 64 E VA BEACH 0350 52 62 360/ 19/ 25 1019.3 9/ 7 DUCK 0400 52 59 10/ 18/ 23 1019.5 2 E DUCK 0400 61 N/A 7/ 7 2/11 OREGON INLET 0400 51 57 360/ 13/ 20 1019.4 13E OREGON INLT 0348 66 N/A 8/ 7 7/ 7 HATTERAS CG 0400 54 60 20/ 19/ 24 1018.9 DIAMOND BUOY 0410 59 72 10/ 19/ 25 1018.8 CAPE LOOKOUT 0400 20/ 15/ 17 1019.3 BEAUFORT LAB 0400 51 61 30/ 7/ 11 1019.2 30 SE NEW RVR IN 0408 61 66 50/ 12/ 17 1018.6 30 SE NEW RVR IN 0400 67 N/A 5/ 9 2/11 27 SE WRIGHTSVLE 0408 63 69 50/ 14/ 21 1017.8 5 SE WRIGHTSVLE 0408 59 63 10/ 12/ 17 1018.4 225 S CAPE HAT 0350 72 76 20/ 8/ 12 1014.3 6/ 9 5/ 9 41 SE CHARLESTON 0410 67 75 30/ 17/ 21 1017.1 $$

USA.gov is the U.S. government's official web portal to all federal, state and local government web resources and services.